Location: Unspecified
(0.0000°N, 0.0000°E)
Time: 04:08:05
(UTC+01:00)

Cosmos 1626 Rocket - Visible Passes

Search period start: 03 March 2015 00:00
Search period end: 13 March 2015 00:00
Orbit: 605 x 632 km, 82.5° (Epoch: 02 March)

Date Brightness Start Highest point End Pass type
(mag) Time Alt. Az. Time Alt. Az. Time Alt. Az.
03 Mar 6.4 06:16:46 10° SE 06:20:09 22° E 06:23:40 10° NE visible
04 Mar 4.7 06:32:57 10° S 06:37:16 49° E 06:41:35 10° NNE visible
06 Mar 7.2 05:33:28 10° E 05:33:36 10° E 05:34:09 10° E visible
07 Mar 6.2 05:47:20 10° SE 05:50:48 23° E 05:54:23 10° NE visible
08 Mar 4.5 06:03:34 10° S 06:07:54 51° E 06:12:15 10° NNE visible
09 Mar 3.5 06:20:31 10° S 06:24:58 67° W 06:29:22 10° N visible
10 Mar 7.0 05:03:29 10° ESE 05:04:14 11° E 05:05:22 10° E visible
10 Mar 4.4 06:38:07 10° SSW 06:42:02 29° W 06:45:51 10° NNW visible
11 Mar 5.9 05:17:53 10° SSE 05:21:25 24° E 05:25:04 10° NE visible
12 Mar 4.3 05:34:10 10° S 05:38:32 54° E 05:42:53 10° NNE visible
